Ponca City, OK

11:06 PM CDT on June 23, 2017 (GMT -0500)
Ponca City Municipal

Weather History for KPNC - January, 2013

Change the Weather History Date:

Wednesday, January 16, 2013

  Actual Average Record
Temperature  
Mean Temperature 30 °F -  
Max Temperature 48 °F 54 °F 75 °F (1952)
Min Temperature 12 °F 28 °F 2 °F (1953)
Degree Days  
Heating Degree Days 35    
Moisture  
Dew Point 17 °F    
Average Humidity 61    
Maximum Humidity 84    
Minimum Humidity 27    
Precipitation  
Precipitation 0.00 in - - ()
Sea Level Pressure  
Sea Level Pressure 30.19 in    
Wind  
Wind Speed 2 mph (SW)    
Max Wind Speed 12 mph    
Max Gust Speed -    
Visibility 10 miles    
Events      
Averages and records for this station are not official NWS values.
T = Trace of Precipitation, MM = Missing Value Source: NWS Daily Summary

Daily Weather History Graph

Daily Weather History Graph

Search for Another Location

Airport or City:

Trip Planner

Search our weather history database for the weather conditions in past years. The results will help you decide how hot, cold, wet, or windy it might be!

Date:

Astronomy

Jan. 16, 2013 Rise Set
Actual Time 7:39 AM CST 5:37 PM CST
Civil Twilight 7:11 AM CST 6:05 PM CST
Nautical Twilight 6:39 AM CST 6:37 PM CST
Astronomical Twilight 6:08 AM CST 7:08 PM CST
Moon 10:26 AM CST (1/16) 11:19 PM CST (1/16)
Length of Visible Light 10h 54m
Length of Day
9h 57m
Waxing Crescent, 28% of the Moon is Illuminated
Jan 16
Waxing Crescent
Jan 18
First Quarter
Jan 26
Full
Feb 3
Last Quarter
Feb 10
New

Hourly Weather History & Observations

Time (CST) Temp. Windchill Dew Point Humidity Pressure Visibility Wind Dir Wind Speed Gust Speed Precip Events Conditions
12:53 AM 18.0 °F - 10.0 °F 71% 30.24 in 10.0 mi Calm Calm - N/A   Clear
1:53 AM 16.0 °F - 10.0 °F 77% 30.23 in 10.0 mi Calm Calm - N/A   Clear
2:53 AM 15.8 °F - 8.6 °F 73% 30.19 in 10.0 mi Calm Calm - N/A   Clear
3:53 AM 12.9 °F - 9.0 °F 84% 30.20 in 10.0 mi Calm Calm - N/A   Clear
4:53 AM 17.1 °F 10.0 °F 10.0 °F 74% 30.20 in 10.0 mi SSE 4.6 mph - N/A   Clear
5:53 AM 12.9 °F - 7.0 °F 77% 30.19 in 10.0 mi Calm Calm - N/A   Clear
6:53 AM 14.0 °F - 8.1 °F 77% 30.19 in 10.0 mi Calm Calm - N/A   Clear
7:53 AM 19.9 °F 13.4 °F 10.9 °F 68% 30.20 in 10.0 mi South 4.6 mph - N/A   Clear
8:53 AM 23.0 °F 18.4 °F 15.1 °F 72% 30.21 in 10.0 mi South 3.5 mph - N/A   Clear
9:53 AM 28.9 °F 23.9 °F 19.0 °F 67% 30.22 in 10.0 mi SSW 4.6 mph - N/A   Clear
10:53 AM 36.0 °F 29.0 °F 21.9 °F 57% 30.21 in 10.0 mi WSW 9.2 mph - N/A   Mostly Cloudy
11:53 AM 41.0 °F 35.2 °F 21.0 °F 45% 30.17 in 10.0 mi SW 9.2 mph - N/A   Scattered Clouds
12:53 PM 44.1 °F 38.6 °F 17.1 °F 34% 30.15 in 10.0 mi SW 10.4 mph - N/A   Overcast
1:53 PM 46.4 °F 41.1 °F 15.8 °F 29% 30.10 in 10.0 mi WSW 11.5 mph - N/A   Overcast
2:53 PM 48.0 °F - 15.1 °F 27% 30.12 in 10.0 mi WSW 8.1 mph - N/A   Scattered Clouds
3:53 PM 48.9 °F - 19.0 °F 31% 30.12 in 10.0 mi Variable 5.8 mph - N/A   Clear
4:53 PM 48.0 °F - 23.0 °F 37% 30.14 in 10.0 mi WNW 5.8 mph - N/A   Clear
5:53 PM 44.1 °F - 25.0 °F 47% 30.16 in 10.0 mi Calm Calm - N/A   Clear
6:53 PM 37.9 °F - 24.1 °F 57% 30.17 in 10.0 mi Calm Calm - N/A   Clear
7:53 PM 35.1 °F - 23.0 °F 61% 30.17 in 10.0 mi Calm Calm - N/A   Clear
8:53 PM 30.9 °F - 21.9 °F 69% 30.19 in 10.0 mi Calm Calm - N/A   Clear
9:53 PM 28.0 °F - 21.0 °F 75% 30.21 in 10.0 mi Calm Calm - N/A   Clear
10:53 PM 26.1 °F - 19.9 °F 78% 30.23 in 10.0 mi Calm Calm - N/A   Clear
11:53 PM 26.1 °F - 21.0 °F 81% 30.24 in 10.0 mi Calm Calm - N/A   Clear